Weather History for Chamberlain, SD

Change the Weather History Date:

Saturday, July 27, 2013

  Actual Average Record
Temperature  
Mean Temperature 60 °F -  
Max Temperature 73 °F 85 °F 100 °F (2006)
Min Temperature 48 °F 60 °F 48 °F (2013)
Degree Days  
Heating Degree Days 5    
Growing Degree Days 10 (Base 50)    
Moisture  
Dew Point 46 °F    
Average Humidity 60    
Maximum Humidity 90    
Minimum Humidity 40    
Precipitation  
Precipitation 0.00 in - - ()
Sea Level Pressure  
Sea Level Pressure 30.13 in    
Wind  
Wind Speed 3 mph (East)    
Max Wind Speed 12 mph    
Max Gust Speed 82 mph    
Averages and records for this station are not official NWS values.
T = Trace of Precipitation, MM = Missing Value Source: NWS Daily Summary

Daily Weather History Graph

Daily Weather History Graph

Search for Another Location

Airport:

Trip Planner

Search our weather history database for the weather conditions in past years. The results will help you decide how hot, cold, wet, or windy it might be!

Date:

Astronomy

Jul. 27, 2013 Rise Set
Actual Time 6:21 AM CDT 9:05 PM CDT
Civil Twilight 5:47 AM CDT 9:39 PM CDT
Nautical Twilight 5:05 AM CDT 10:21 PM CDT
Astronomical Twilight 4:16 AM CDT 11:09 PM CDT
Moon 11:39 PM CDT (7/27) 12:16 PM CDT (7/27)
Length of Visible Light 15h 51m
Length of Day
14h 44m
Waning Gibbous, 70% of the Moon is Illuminated
Jul 27
Waning Gibbous
Jul 29
Last Quarter
Aug 6
New
Aug 14
First Quarter
Aug 20
Full

Hourly Weather History & Observations

Time (CDT) Temp. Dew Point Humidity Pressure Visibility Wind Dir Wind Speed Gust Speed Precip Events Conditions
12:52 AM 57.9 °F 46.9 °F 67% 30.18 in - Calm Calm - N/A   Unknown
1:52 AM 57.9 °F 45.0 °F 62% 30.18 in - Calm Calm - N/A   Unknown
2:52 AM 54.0 °F 45.0 °F 72% 30.18 in - Calm Calm - N/A   Unknown
3:52 AM 52.0 °F 46.0 °F 80% 30.17 in - NE 3.5 mph - N/A   Unknown
4:52 AM 51.1 °F 46.0 °F 83% 30.17 in - Calm Calm - N/A   Unknown
5:52 AM 48.9 °F 46.0 °F 90% 30.17 in - North 6.9 mph - N/A   Unknown
6:52 AM 52.0 °F 48.0 °F 86% 30.16 in - NE 5.8 mph - N/A   Unknown
7:52 AM 55.9 °F 50.0 °F 80% 30.17 in - ENE 6.9 mph - N/A   Unknown
8:52 AM 57.9 °F 46.9 °F 67% 30.19 in - East 5.8 mph - N/A   Unknown
9:52 AM 61.0 °F 46.0 °F 58% 30.19 in - East 8.1 mph - N/A   Unknown
10:52 AM 64.0 °F 48.0 °F 56% 30.18 in - East 11.5 mph - N/A   Unknown
11:52 AM 64.0 °F 46.0 °F 52% 30.17 in - Variable 4.6 mph - N/A   Unknown
12:52 PM 68.0 °F 46.9 °F 47% 30.15 in - ESE 6.9 mph - N/A   Unknown
1:52 PM 70.0 °F 46.9 °F 44% 30.12 in - NE 5.8 mph - N/A   Unknown
2:52 PM 70.0 °F 45.0 °F 41% 30.11 in - Variable 3.5 mph - N/A   Unknown
3:42 PM 69.8 °F 44.6 °F 40% 30.11 in - North - - N/A   Unknown
3:52 PM 69.1 °F 45.0 °F 42% 30.10 in - ESE 3.5 mph 81.7 mph N/A   Unknown
4:52 PM 70.0 °F 45.0 °F 41% 30.09 in - South 4.6 mph - N/A   Unknown
5:52 PM 71.1 °F 46.0 °F 41% 30.07 in - Variable 4.6 mph - N/A   Unknown
6:52 PM 72.0 °F 46.0 °F 40% 30.06 in - Variable 5.8 mph - N/A   Unknown
7:52 PM 68.0 °F 46.9 °F 47% 30.06 in - ESE 3.5 mph - N/A   Unknown
8:52 PM 64.0 °F 45.0 °F 50% 30.05 in - Calm Calm - N/A   Unknown
9:52 PM 59.0 °F 46.0 °F 62% 30.06 in - SE 6.9 mph - N/A   Unknown
10:52 PM 57.0 °F 46.0 °F 67% 30.06 in - SSE 8.1 mph - N/A   Unknown
11:52 PM 52.0 °F 44.1 °F 74% 30.06 in - South 4.6 mph - N/A   Unknown